Volver al catálogo

FALCON 9 R/B

ActivoHEO
NORAD 62484·ROCKET BODY·🇺🇸 United States

Lanzado Jan 4, 2025 desde Cape Canaveral Space Force Station

Loading…

Próximos Pases (próximas 24 horas)

TLE

ActualizadoSource: Space-Track

Época: Sep 14, 2026, 02:15 UTC

1 62484U 25001B   26257.09385792  .00000003  00000-0  11639-2 0  9992
2 62484  24.4184 192.5775 7955071  33.2447 357.3260  1.41767981  8763

Sigue FALCON 9 R/B en tiempo real con AllMySat

Download on the App Store